EW3529 Weather Reports


time (UTC)temp
C
wind
direction
speed
KPH
gust
KPH
rain 1hr
cm
rain 24hr
cm
rain mn
cm
humidity
%
barometer
mb
20260508002409 12 206 3.2 8.0 0.00 0.41 0.03 83 1010.1
20260508001908 12 206 3.2 11.3 0.00 0.41 0.03 82 1010.1
20260508001409 13 206 8.0 11.3 0.00 0.41 0.03 82 1010.0
20260508000908 13 206 9.7 11.3 0.00 0.41 0.03 81 1009.8
20260508000412 13 221 3.2 9.7 0.00 0.41 0.03 80 1009.8
20260507235909 13 190 1.6 11.3 0.00 0.41 0.03 79 1009.6
20260507235409 14 198 8.0 11.3 0.00 0.41 0.03 79 1009.6
20260507234908 14 198 4.8 14.5 0.00 0.41 0.03 78 1009.7
20260507234409 15 210 4.8 14.5 0.00 0.41 0.03 78 1009.6
20260507233909 15 188 8.0 16.1 0.00 0.41 0.03 79 1009.5
20260507233410 15 205 9.7 16.1 0.00 0.41 0.03 77 1009.5
20260507232909 15 194 11.3 19.3 0.00 0.41 0.03 77 1009.4
20260507232408 15 194 8.0 19.3 0.00 0.41 0.03 76 1009.3
20260507231909 16 193 8.0 16.1 0.00 0.41 0.03 75 1009.2
20260507231410 16 187 9.7 14.5 0.00 0.41 0.03 75 1009.1
20260507230908 16 187 8.0 12.9 0.00 0.41 0.03 74 1009.1
20260507230409 16 189 8.0 14.5 0.00 0.41 0.03 74 1009.0
20260507225909 16 161 9.7 16.1 0.00 0.41 0.03 72 1008.9
20260507225409 17 186 6.4 16.1 0.00 0.41 0.03 73 1008.9
20260507224909 17 140 8.0 16.1 0.00 0.41 0.03 72 1008.9
20260507224408 17 210 4.8 19.3 0.00 0.41 0.03 73 1008.9
20260507223909 17 171 11.3 19.3 0.00 0.41 0.03 72 1008.7
20260507223409 17 201 12.9 19.3 0.00 0.41 0.03 73 1008.6
20260507222909 17 199 11.3 16.1 0.00 0.41 0.03 74 1008.6
20260507222408 17 180 4.8 12.9 0.00 0.41 0.03 73 1008.5
20260507221909 17 178 8.0 14.5 0.00 0.41 0.03 73 1008.5
20260507221409 17 187 11.3 16.1 0.00 0.41 0.03 73 1008.5
20260507220909 17 165 8.0 19.3 0.00 0.41 0.03 71 1008.5
20260507220409 17 184 8.0 19.3 0.00 0.41 0.03 71 1008.4
20260507215908 17 198 11.3 16.1 0.00 0.41 0.03 73 1008.3
20260507215409 17 198 11.3 19.3 0.00 0.41 0.03 70 1008.3
20260507214908 17 165 6.4 19.3 0.00 0.41 0.03 70 1008.3
20260507214408 17 193 9.7 19.3 0.00 0.41 0.03 71 1008.4
20260507213909 17 123 6.4 19.3 0.00 0.41 0.03 69 1008.4
20260507213408 17 172 9.7 19.3 0.00 0.41 0.03 69 1008.4
20260507212908 17 208 9.7 19.3 0.00 0.41 0.03 71 1008.4
20260507212408 18 162 4.8 20.9 0.00 0.41 0.03 68 1008.4
20260507211908 18 198 12.9 20.9 0.00 0.41 0.03 69 1008.4
20260507211408 17 198 12.9 22.5 0.00 0.41 0.03 68 1008.2
20260507210908 18 215 12.9 22.5 0.00 0.41 0.03 68 1008.2
20260507210408 17 209 14.5 22.5 0.00 0.41 0.03 74 1008.2
20260507205908 17 142 9.7 19.3 0.00 0.41 0.03 70 1008.2
20260507205408 17 193 4.8 19.3 0.00 0.41 0.03 71 1008.2
20260507204908 17 0 0.0 0.0 0.00 0.41 0.03 72 1008.3
20260507204409 16 0 0.0 0.0 0.00 0.41 0.03 74 1008.4
20260507203908 16 0 0.0 0.0 0.00 0.41 0.03 72 1008.4
20260507203408 16 0 0.0 0.0 0.00 0.41 0.03 73 1008.4
20260507202908 16 0 0.0 0.0 0.00 0.41 0.03 71 1008.3
20260507202408 16 0 0.0 0.0 0.00 0.41 0.03 71 1008.5
20260507201907 16 0 0.0 0.0 0.00 0.41 0.03 74 1008.4
20260507201408 16 0 0.0 0.0 0.00 0.41 0.03 73 1008.4
20260507200908 16 0 0.0 0.0 0.00 0.41 0.03 74 1008.6
20260507200408 16 0 0.0 0.0 0.00 0.41 0.03 73 1008.7
20260507195908 16 0 0.0 0.0 0.00 0.41 0.03 72 1008.8
20260507195408 16 0 0.0 0.0 0.00 0.41 0.03 73 1008.8
20260507194907 16 0 0.0 0.0 0.00 0.41 0.03 72 1008.8
20260507194408 16 0 0.0 0.0 0.00 0.41 0.03 70 1008.7
20260507193908 16 0 0.0 0.0 0.00 0.41 0.03 71 1008.9
20260507193408 17 0 0.0 0.0 0.00 0.41 0.03 71 1009.2
20260507192908 17 0 0.0 0.0 0.00 0.41 0.03 74 1009.2
20260507192407 16 0 0.0 0.0 0.00 0.41 0.03 74 1009.4
20260507191908 16 0 0.0 9.7 0.00 0.41 0.03 72 1009.3
20260507191409 16 9 3.2 9.7 0.00 0.41 0.03 72 1009.3
20260507190908 16 202 9.7 16.1 0.00 0.41 0.03 74 1009.3
20260507190408 16 202 9.7 16.1 0.00 0.41 0.03 75 1009.3
20260507185908 16 195 4.8 11.3 0.00 0.41 0.03 70 1009.4
20260507185407 16 173 4.8 11.3 0.00 0.41 0.03 72 1009.6
20260507184908 16 173 6.4 16.1 0.00 0.41 0.03 75 1009.5
20260507184408 16 175 9.7 16.1 0.00 0.41 0.03 74 1009.8
20260507183908 16 149 4.8 16.1 0.00 0.41 0.03 73 1009.8
20260507183408 16 120 6.4 16.1 0.00 0.41 0.03 75 1009.8
20260507182908 16 208 4.8 11.3 0.00 0.41 0.03 75 1009.8
20260507182407 15 161 4.8 14.5 0.00 0.41 0.03 78 1009.8
20260507181907 15 144 3.2 14.5 0.00 0.41 0.03 73 1009.8
20260507181407 15 138 8.0 14.5 0.00 0.41 0.03 77 1009.8
20260507180908 15 119 8.0 11.3 0.00 0.41 0.03 75 1010.0
20260507180408 15 135 4.8 12.9 0.03 0.41 0.03 77 1010.1
20260507175908 15 73 1.6 12.9 0.03 0.41 0.03 76 1010.3
20260507175408 14 115 3.2 12.9 0.03 0.41 0.03 79 1010.3
20260507174908 14 113 3.2 11.3 0.03 0.41 0.03 82 1010.2
20260507174408 13 132 3.2 9.7 0.03 0.41 0.03 80 1010.4
20260507173908 13 114 3.2 9.7 0.03 0.41 0.03 81 1010.4
20260507173407 13 112 3.2 9.7 0.03 0.41 0.03 79 1010.4
20260507172908 13 95 6.4 11.3 0.03 0.41 0.03 80 1010.5
20260507172407 13 96 6.4 11.3 0.03 0.41 0.03 82 1010.8
20260507171907 13 68 4.8 12.9 0.03 0.41 0.03 83 1010.9
20260507171407 12 68 9.7 12.9 0.03 0.41 0.03 82 1010.8
20260507170907 12 134 8.0 12.9 0.03 0.41 0.03 82 1011.0
20260507170408 12 81 4.8 12.9 0.00 0.38 0.00 83 1011.0
20260507165907 12 111 1.6 11.3 0.00 0.38 0.00 84 1011.1
20260507165408 12 86 6.4 14.5 0.00 0.38 0.00 83 1011.1
20260507164908 12 85 11.3 14.5 0.00 0.38 0.00 83 1011.1
20260507164408 12 76 8.0 14.5 0.00 0.38 0.00 83 1011.1
20260507163908 12 53 8.0 19.3 0.00 0.38 0.00 83 1011.3
20260507163408 12 70 8.0 19.3 0.00 0.38 0.00 83 1011.3
20260507162908 12 60 9.7 20.9 0.00 0.38 0.00 84 1011.4
20260507162408 12 79 16.1 20.9 0.00 0.38 0.00 85 1011.4
20260507161907 12 74 12.9 20.9 0.00 0.38 0.00 84 1011.7
20260507161407 12 54 8.0 22.5 0.00 0.38 0.00 85 1011.6
20260507160907 12 62 16.1 22.5 0.00 0.38 0.00 86 1011.8
20260507160408 12 72 17.7 22.5 0.00 0.38 0.00 87 1011.8
20260507155908 12 77 14.5 19.3 0.00 0.38 0.00 88 1011.9
20260507155408 11 72 16.1 19.3 0.00 0.38 0.00 87 1011.9
20260507154907 11 57 8.0 16.1 0.00 0.38 0.00 87 1012.0
20260507154407 11 42 4.8 19.3 0.00 0.38 0.00 88 1012.1
20260507153908 11 64 11.3 19.3 0.00 0.38 0.00 88 1012.1
20260507153407 11 75 11.3 19.3 0.00 0.38 0.00 88 1012.0
20260507152907 11 62 11.3 19.3 0.00 0.38 0.00 89 1012.1
20260507152407 11 42 9.7 19.3 0.00 0.38 0.00 89 1012.1
20260507151908 11 70 11.3 19.3 0.00 0.38 0.00 89 1012.2
20260507151408 11 43 9.7 19.3 0.00 0.38 0.00 89 1012.2
20260507150908 11 57 11.3 19.3 0.00 0.38 0.00 92 1012.0
20260507150408 11 43 9.7 19.3 0.00 0.38 0.00 89 1012.0
20260507145907 11 33 11.3 20.9 0.00 0.38 0.00 89 1012.0
20260507145408 11 39 16.1 20.9 0.00 0.38 0.00 89 1012.0
20260507144908 11 44 14.5 20.9 0.00 0.38 0.00 89 1012.1
20260507144407 11 29 14.5 20.9 0.00 0.38 0.00 89 1012.1
20260507143907 11 42 8.0 19.3 0.00 0.38 0.00 89 1012.4
20260507143407 11 53 14.5 16.1 0.00 0.38 0.00 89 1012.4
20260507142907 11 52 8.0 12.9 0.00 0.38 0.00 89 1012.5
20260507142407 11 28 9.7 12.9 0.00 0.38 0.00 90 1012.5
20260507141907 11 53 8.0 16.1 0.00 0.38 0.00 90 1012.5
20260507141407 11 45 8.0 16.1 0.00 0.38 0.00 90 1012.5
20260507140907 11 36 11.3 16.1 0.00 0.38 0.00 90 1012.6
20260507140407 11 34 11.3 14.5 0.00 0.38 0.00 90 1012.6
20260507135907 11 29 9.7 14.5 0.00 0.38 0.00 90 1012.6
20260507135407 11 43 11.3 14.5 0.00 0.38 0.00 90 1012.6
20260507134907 11 36 11.3 19.3 0.00 0.38 0.00 90 1012.7
20260507134407 11 30 9.7 19.3 0.00 0.38 0.00 90 1012.7
20260507133907 11 46 11.3 16.1 0.00 0.38 0.00 90 1012.7
20260507133407 11 36 11.3 14.5 0.00 0.38 0.00 90 1012.7
20260507132907 11 37 8.0 16.1 0.00 0.38 0.00 90 1012.7
20260507132407 11 27 9.7 16.1 0.00 0.38 0.00 90 1012.6
20260507131907 11 34 12.9 16.1 0.00 0.38 0.00 90 1012.7
20260507131408 11 35 9.7 16.1 0.00 0.38 0.00 91 1012.7
20260507130907 11 43 11.3 16.1 0.00 0.38 0.00 91 1012.6
20260507130406 11 31 8.0 14.5 0.00 0.38 0.00 91 1012.6
20260507125907 11 29 9.7 14.5 0.00 0.38 0.00 91 1012.7
20260507125406 11 36 9.7 16.1 0.00 0.38 0.00 91 1012.7
20260507124907 11 37 9.7 16.1 0.00 0.38 0.00 91 1012.7
20260507124407 11 31 8.0 16.1 0.00 0.38 0.00 91 1012.7
20260507123907 11 42 6.4 16.1 0.00 0.38 0.00 90 1012.6
20260507123407 11 28 11.3 16.1 0.00 0.43 0.00 90 1012.6
20260507122907 11 39 9.7 14.5 0.00 0.46 0.00 91 1012.5
20260507122407 11 30 9.7 14.5 0.00 0.46 0.00 90 1012.7
20260507121907 11 29 9.7 16.1 0.00 0.46 0.00 90 1012.3
20260507121406 11 40 11.3 16.1 0.00 0.46 0.00 91 1012.3
20260507120906 11 52 9.7 11.3 0.00 0.48 0.00 90 1012.3
20260507120407 11 30 6.4 11.3 0.00 0.48 0.00 90 1012.3
20260507115907 11 38 3.2 11.3 0.00 0.48 0.00 90 1012.3
20260507115407 11 21 4.8 12.9 0.00 0.48 0.00 90 1012.4
20260507114907 11 31 8.0 12.9 0.00 0.48 0.00 90 1012.3
20260507114407 11 43 9.7 11.3 0.00 0.48 0.00 90 1012.3
20260507113907 11 47 8.0 14.5 0.00 0.48 0.00 90 1012.3
20260507113407 11 47 6.4 14.5 0.00 0.48 0.00 90 1012.3
20260507112907 11 25 8.0 14.5 0.00 0.51 0.00 90 1012.1
20260507112406 11 41 9.7 14.5 0.00 0.51 0.00 90 1012.1
20260507111907 11 45 9.7 14.5 0.00 0.51 0.00 90 1012.1
20260507111407 11 28 9.7 14.5 0.00 0.51 0.00 90 1012.1
20260507110907 11 36 8.0 19.3 0.00 0.51 0.00 90 1012.0
20260507110407 11 29 11.3 19.3 0.00 0.51 0.00 90 1011.9
20260507105906 11 34 9.7 19.3 0.00 0.51 0.00 90 1011.9
20260507105407 11 38 9.7 14.5 0.00 0.51 0.00 90 1011.9
20260507104907 11 52 9.7 19.3 0.00 0.51 0.00 90 1011.7
20260507104407 11 45 12.9 19.3 0.00 0.51 0.00 90 1011.6
20260507103907 11 27 9.7 19.3 0.00 0.51 0.00 90 1011.7
20260507103407 11 27 11.3 19.3 0.00 0.51 0.00 90 1011.4
20260507102907 11 41 12.9 20.9 0.00 0.51 0.00 90 1011.5
20260507102407 11 48 14.5 20.9 0.00 0.51 0.00 90 1011.5
20260507101907 11 43 12.9 19.3 0.00 0.51 0.00 90 1011.5
20260507101406 11 40 11.3 19.3 0.00 0.51 0.00 90 1011.6
20260507100907 11 39 11.3 19.3 0.00 0.51 0.00 90 1011.6
20260507100407 11 42 12.9 22.5 0.00 0.51 0.00 90 1011.7
20260507095907 11 45 16.1 22.5 0.00 0.51 0.00 90 1011.7
20260507095407 11 34 14.5 20.9 0.00 0.51 0.00 90 1011.6
20260507094907 11 42 14.5 25.7 0.00 0.51 0.00 90 1011.6
20260507094407 11 37 14.5 25.7 0.00 0.51 0.00 90 1011.6
20260507093906 11 33 16.1 22.5 0.00 0.51 0.00 90 1011.5
20260507093406 11 37 14.5 22.5 0.00 0.51 0.00 90 1011.5
20260507092907 11 32 16.1 22.5 0.00 0.51 0.00 90 1011.1
20260507092406 11 26 14.5 22.5 0.00 0.51 0.00 90 1011.1
20260507091906 11 41 11.3 20.9 0.00 0.51 0.00 90 1011.1
20260507091406 11 57 12.9 20.9 0.00 0.51 0.00 90 1011.1
20260507090906 11 42 14.5 20.9 0.00 0.51 0.00 90 1011.2
20260507090407 11 41 11.3 20.9 0.00 0.51 0.00 90 1011.3
20260507085907 11 52 14.5 22.5 0.00 0.51 0.00 89 1011.4
20260507085406 11 54 11.3 22.5 0.00 0.51 0.00 89 1011.2
20260507084906 11 41 11.3 16.1 0.00 0.51 0.00 89 1011.1
20260507084406 11 41 9.7 19.3 0.00 0.51 0.00 89 1011.3
20260507083907 12 34 12.9 19.3 0.00 0.51 0.00 89 1010.9
20260507083406 12 44 11.3 19.3 0.00 0.51 0.00 89 1010.9
20260507082907 12 44 11.3 19.3 0.00 0.51 0.00 89 1010.9
20260507082406 12 45 12.9 19.3 0.00 0.51 0.00 89 1010.9
20260507081906 12 45 11.3 19.3 0.00 0.51 0.00 89 1011.1
20260507081406 12 21 9.7 19.3 0.00 0.51 0.00 89 1010.8
20260507080907 12 45 12.9 19.3 0.00 0.51 0.00 89 1011.0
20260507080407 12 27 11.3 19.3 0.00 0.51 0.00 89 1011.1
20260507075906 12 24 12.9 20.9 0.00 0.51 0.00 89 1011.1
20260507075406 12 28 14.5 20.9 0.00 0.51 0.00 89 1011.0
20260507074906 12 29 14.5 20.9 0.00 0.51 0.00 89 1010.9
20260507074407 12 31 12.9 20.9 0.00 0.51 0.00 89 1011.3
20260507073906 12 36 16.1 22.5 0.00 0.51 0.00 89 1011.1
20260507073406 12 35 14.5 22.5 0.00 0.51 0.00 89 1010.9
20260507072907 12 51 16.1 22.5 0.00 0.51 0.00 89 1011.1
20260507072406 12 44 16.1 32.2 0.00 0.51 0.00 90 1011.1
20260507071906 12 27 14.5 32.2 0.00 0.51 0.00 90 1010.5
20260507071406 12 42 20.9 27.4 0.00 0.51 0.00 89 1010.4
20260507070906 12 30 17.7 25.7 0.00 0.51 0.00 90 1010.6
20260507070405 13 38 14.5 24.1 0.00 0.51 0.00 90 1010.4
20260507065906 13 53 12.9 19.3 0.00 0.51 0.00 89 1010.4
20260507065406 13 65 9.7 19.3 0.00 0.51 0.00 89 1010.4
20260507064906 13 40 12.9 19.3 0.00 0.51 0.00 89 1010.4
20260507064407 13 41 14.5 19.3 0.00 0.51 0.00 89 1010.4
20260507063906 13 49 9.7 20.9 0.00 0.51 0.00 89 1010.5
20260507063406 13 63 11.3 20.9 0.00 0.51 0.00 90 1010.5
20260507062905 13 42 14.5 20.9 0.00 0.51 0.00 89 1010.5
20260507062406 14 36 16.1 19.3 0.00 0.51 0.00 89 1010.6
20260507061906 14 40 11.3 16.1 0.00 0.51 0.00 89 1010.5
20260507061406 14 56 11.3 19.3 0.00 0.51 0.00 89 1010.5
20260507060906 14 20 12.9 19.3 0.00 0.51 0.00 89 1010.5
20260507060406 15 4 9.7 12.9 0.00 0.51 0.00 89 1010.5
20260507055906 15 52 8.0 12.9 0.00 0.51 0.00 89 1010.7
20260507055406 15 5 8.0 11.3 0.00 0.51 0.00 88 1010.6
20260507054906 15 87 3.2 9.7 0.00 0.51 0.00 89 1010.7
20260507054406 15 38 6.4 9.7 0.00 0.51 0.00 89 1010.7
20260507053906 15 17 4.8 4.8 0.00 0.51 0.00 89 1010.7
20260507053406 15 356 3.2 4.8 0.00 0.51 0.00 89 1010.8
20260507052906 15 356 0.0 4.8 0.00 0.51 0.00 89 1010.8
20260507052405 15 356 1.6 11.3 0.00 0.51 0.00 89 1010.4
20260507051907 15 335 0.0 14.5 0.00 0.51 0.00 89 1010.4
20260507051406 15 350 6.4 16.1 0.00 0.51 0.00 89 1010.4
20260507050905 15 336 8.0 19.3 0.00 0.51 0.00 89 1010.0
20260507050406 16 349 11.3 19.3 0.00 0.51 0.00 89 1010.0
20260507045906 16 0 14.5 19.3 0.00 0.51 0.00 89 1009.9
20260507045406 16 348 8.0 19.3 0.08 0.51 0.00 89 1009.6
20260507044906 16 2 8.0 22.5 0.33 0.51 0.00 89 1009.1
20260507044406 16 48 8.0 27.4 0.33 0.51 0.00 90 1008.9
20260507043906 16 83 16.1 29.0 0.33 0.51 0.00 90 1008.9
20260507043405 16 95 24.1 29.0 0.33 0.51 0.00 90 1009.2
20260507042906 16 88 14.5 22.5 0.33 0.51 0.00 90 1010.0
20260507042405 16 79 9.7 19.3 0.33 0.51 0.00 90 1010.0
20260507041906 16 58 6.4 11.3 0.33 0.51 0.00 90 1010.1
20260507041406 17 54 8.0 14.5 0.33 0.51 0.00 90 1010.5
20260507040905 17 37 6.4 14.5 0.33 0.51 0.00 89 1010.5
20260507040406 17 29 11.3 14.5 0.33 0.51 0.00 89 1010.3
20260507035906 17 40 8.0 12.9 0.33 0.51 0.51 89 1010.2
20260507035406 17 27 8.0 11.3 0.30 0.48 0.48 89 1010.8
20260507034905 17 357 9.7 11.3 0.05 0.23 0.23 89 1010.9
20260507034406 17 349 3.2 9.7 0.00 0.18 0.18 88 1010.3
20260507033905 17 34 8.0 9.7 0.00 0.18 0.18 88 1010.3
20260507033406 17 48 3.2 9.7 0.00 0.18 0.18 88 1010.5
20260507032906 17 48 3.2 12.9 0.03 0.18 0.18 88 1010.5
20260507032406 17 76 9.7 12.9 0.03 0.18 0.18 88 1010.4
20260507031906 17 58 3.2 12.9 0.05 0.18 0.18 87 1010.4
20260507031405 18 87 8.0 12.9 0.05 0.18 0.18 87 1010.3
20260507030906 18 114 6.4 11.3 0.05 0.18 0.18 87 1010.3
20260507030406 18 121 6.4 14.5 0.05 0.18 0.18 87 1010.1
20260507025905 18 68 9.7 14.5 0.05 0.18 0.18 86 1009.8
20260507025405 19 60 11.3 12.9 0.05 0.18 0.18 86 1009.9
20260507024906 19 34 4.8 8.0 0.05 0.18 0.18 86 1010.0
20260507024406 19 71 3.2 4.8 0.05 0.18 0.18 85 1009.5
20260507023905 19 68 4.8 4.8 0.05 0.18 0.18 85 1009.5
20260507023407 20 51 3.2 4.8 0.05 0.18 0.18 84 1009.5
20260507022906 20 288 0.0 3.2 0.03 0.15 0.15 83 1009.5
20260507022405 20 288 1.6 4.8 0.03 0.15 0.15 82 1009.5
20260507021906 20 288 3.2 12.9 0.00 0.13 0.13 82 1009.5
20260507021405 20 284 4.8 12.9 0.00 0.13 0.13 81 1009.5
20260507020906 20 251 11.3 12.9 0.00 0.13 0.13 81 1009.2
20260507020406 20 242 8.0 9.7 0.00 0.13 0.13 81 1009.2
20260507015905 20 214 8.0 11.3 0.00 0.13 0.13 80 1009.2
20260507015406 20 212 8.0 14.5 0.00 0.13 0.13 80 1009.2
20260507014906 20 202 4.8 14.5 0.00 0.13 0.13 80 1009.1
20260507014405 20 192 6.4 19.3 0.00 0.13 0.13 80 1009.2
20260507013905 20 195 9.7 19.3 0.00 0.13 0.13 80 1009.1
20260507013405 20 196 4.8 11.3 0.00 0.13 0.13 80 1008.8
20260507012906 20 153 4.8 11.3 0.00 0.13 0.13 80 1008.8
20260507012406 20 173 4.8 11.3 0.00 0.13 0.13 80 1008.8
20260507011906 20 144 4.8 11.3 0.00 0.13 0.13 80 1009.1
20260507011405 20 162 6.4 11.3 0.00 0.13 0.13 80 1009.1
20260507010406 20 192 6.4 9.7 0.00 0.13 0.13 80 1009.4
20260507005906 20 175 3.2 9.7 0.00 0.13 0.13 79 1009.4
20260507005406 20 196 6.4 9.7 0.00 0.13 0.13 79 1009.4
20260507004906 20 205 8.0 12.9 0.00 0.13 0.13 79 1009.4
20260507004405 20 215 8.0 12.9 0.00 0.13 0.13 79 1009.4
20260507003908 20 191 4.8 14.5 0.00 0.13 0.13 78 1009.4
20260507003406 20 204 8.0 14.5 0.00 0.13 0.13 78 1009.4
20260507002906 21 213 9.7 16.1 0.00 0.13 0.13 77 1009.2